DW7092 Weather Reports


time (UTC)temp
C
wind
direction
speed
KPH
gust
KPH
rain 1hr
cm
rain 24hr
cm
rain mn
cm
humidity
%
barometer
mb
20260906220025 31 9 0.0 0.0 0.00 0.00 0.00 34 1017.1
20260906215525 31 128 0.0 0.0 0.00 0.00 0.00 34 1017.2
20260906215025 30 42 0.0 3.2 0.00 0.00 0.00 35 1017.3
20260906214526 30 49 0.0 0.0 0.00 0.00 0.00 35 1017.4
20260906214026 31 329 0.0 0.0 0.00 0.00 0.00 32 1017.5
20260906213526 31 334 0.0 1.6 0.00 0.00 0.00 33 1017.4
20260906213040 30 63 0.0 1.6 0.00 0.00 0.00 33 1017.5
20260906212521 30 234 0.0 0.0 0.00 0.00 0.00 33 1017.5
20260906212022 30 176 0.0 0.0 0.00 0.00 0.00 33 1017.6
20260906211548 29 202 0.0 0.0 0.00 0.00 0.00 35 1017.6
20260906211045 29 201 0.0 3.2 0.00 0.00 0.00 34 1017.8
20260906210548 28 200 0.0 3.2 0.00 0.00 0.00 35 1017.9
20260906210028 28 97 0.0 0.0 0.00 0.00 0.00 37 1018.0
20260906205525 28 212 0.0 0.0 0.00 0.00 0.00 36 1018.0
20260906205057 30 173 0.0 4.8 0.00 0.00 0.00 35 1018.0
20260906204534 30 27 0.0 4.8 0.00 0.00 0.00 34 1018.1
20260906204035 30 96 0.0 4.8 0.00 0.00 0.00 36 1018.1
20260906203535 29 223 0.0 0.0 0.00 0.00 0.00 36 1018.1
20260906203035 30 223 0.0 0.0 0.00 0.00 0.00 34 1018.2
20260906202537 30 111 0.0 0.0 0.00 0.00 0.00 33 1018.2
20260906202036 30 197 0.0 0.0 0.00 0.00 0.00 36 1018.2
20260906201537 30 259 0.0 0.0 0.00 0.00 0.00 35 1018.3
20260906201038 30 316 0.0 0.0 0.00 0.00 0.00 34 1018.3
20260906200535 30 336 0.0 0.0 0.00 0.00 0.00 38 1018.4
20260906200033 30 311 0.0 0.0 0.00 0.00 0.00 36 1018.4
20260906195534 29 304 0.0 0.0 0.00 0.00 0.00 36 1018.4
20260906195141 30 304 0.0 1.6 0.00 0.00 0.00 35 1018.4
20260906194527 30 350 0.0 1.6 0.00 0.00 0.00 36 1018.5
20260906194057 30 121 0.0 0.0 0.00 0.00 0.00 35 1018.6
20260906193539 30 336 0.0 0.0 0.00 0.00 0.00 36 1018.6
20260906193040 29 25 0.0 0.0 0.00 0.00 0.00 38 1018.7
20260906192542 29 68 0.0 0.0 0.00 0.00 0.00 38 1018.7
20260906192043 28 207 0.0 0.0 0.00 0.00 0.00 37 1018.8
20260906191545 27 286 0.0 4.8 0.00 0.00 0.00 41 1018.9
20260906191047 28 307 0.0 1.6 0.00 0.00 0.00 40 1018.9
20260906190527 28 297 0.0 0.0 0.00 0.00 0.00 40 1018.9
20260906190051 28 341 0.0 0.0 0.00 0.00 0.00 40 1019.0
20260906185528 28 341 0.0 0.0 0.00 0.00 0.00 43 1019.1
20260906185026 28 336 0.0 0.0 0.00 0.00 0.00 43 1019.2
20260906184526 28 291 0.0 0.0 0.00 0.00 0.00 44 1019.3
20260906184023 27 308 0.0 0.0 0.00 0.00 0.00 46 1019.5
20260906183524 26 308 0.0 0.0 0.00 0.00 0.00 46 1019.6
20260906183024 26 188 0.0 0.0 0.00 0.00 0.00 46 1019.7
20260906182525 26 282 0.0 0.0 0.00 0.00 0.00 47 1019.8
20260906182100 26 282 0.0 1.6 0.00 0.00 0.00 46 1019.8
20260906181521 27 50 0.0 1.6 0.00 0.00 0.00 48 1019.9
20260906181025 26 50 0.0 0.0 0.00 0.00 0.00 50 1020.0
20260906180550 26 341 0.0 0.0 0.00 0.00 0.00 50 1020.0
20260906180104 26 89 0.0 0.0 0.00 0.00 0.00 49 1020.1
20260906175543 26 145 0.0 0.0 0.00 0.00 0.00 51 1020.2
20260906175042 25 150 0.0 0.0 0.00 0.00 0.00 56 1020.4
20260906174542 25 151 0.0 0.0 0.00 0.00 0.00 57 1020.6
20260906174043 24 151 0.0 0.0 0.00 0.00 0.00 53 1020.7
20260906173542 24 66 0.0 0.0 0.00 0.00 0.00 56 1020.7
20260906173043 23 63 0.0 1.6 0.00 0.00 0.00 57 1020.8
20260906172546 23 332 0.0 1.6 0.00 0.00 0.00 59 1020.8
20260906172048 23 357 0.0 0.0 0.00 0.00 0.00 56 1020.9
20260906171547 24 87 0.0 0.0 0.00 0.00 0.00 58 1020.9
20260906171049 23 89 0.0 0.0 0.00 0.00 0.00 60 1020.9
20260906170544 22 331 0.0 0.0 0.00 0.00 0.00 60 1021.0
20260906170047 23 331 0.0 0.0 0.00 0.00 0.00 60 1021.1
20260906165527 22 340 0.0 0.0 0.00 0.00 0.00 62 1021.1
20260906165055 22 328 0.0 0.0 0.00 0.00 0.00 64 1021.2
20260906164534 22 328 0.0 0.0 0.00 0.00 0.00 63 1021.2
20260906164035 22 328 0.0 0.0 0.00 0.00 0.00 64 1021.2
20260906163536 21 328 0.0 0.0 0.00 0.00 0.00 67 1021.3
20260906163036 21 328 0.0 0.0 0.00 0.00 0.00 66 1021.3
20260906162533 21 328 0.0 0.0 0.00 0.00 0.00 66 1021.1
20260906162105 21 328 0.0 0.0 0.00 0.00 0.00 66 1021.1
20260906161548 21 327 0.0 0.0 0.00 0.00 0.00 65 1021.1
20260906161024 21 327 0.0 0.0 0.00 0.00 0.00 67 1021.1
20260906160524 21 326 0.0 0.0 0.00 0.00 0.00 68 1021.1
20260906160025 20 326 0.0 0.0 0.00 0.00 0.00 69 1021.2
20260906155525 20 331 0.0 0.0 0.00 0.00 0.00 70 1021.2
20260906155029 20 333 0.0 0.0 0.00 0.00 0.00 69 1021.2
20260906154533 20 330 0.0 0.0 0.00 0.00 0.00 70 1021.3
20260906154031 20 329 0.0 0.0 0.00 0.00 0.00 70 1021.3
20260906153533 20 1 0.0 0.0 0.00 0.00 0.00 72 1021.2
20260906153043 19 333 0.0 0.0 0.00 0.00 0.00 72 1021.2
20260906152523 19 328 0.0 0.0 0.00 0.00 0.00 73 1021.3
20260906152025 19 328 0.0 0.0 0.00 0.00 0.00 74 1021.4
20260906151528 18 327 0.0 0.0 0.00 0.00 0.00 74 1021.4
20260906151029 18 327 0.0 1.6 0.00 0.00 0.00 76 1021.4
20260906150554 18 327 0.0 1.6 0.00 0.00 0.00 77 1021.3
20260906150108 17 322 0.0 0.0 0.00 0.00 0.00 78 1021.3
20260906145547 17 322 0.0 0.0 0.00 0.00 0.00 78 1021.4
20260906145048 17 322 0.0 0.0 0.00 0.00 0.00 78 1021.4
20260906144546 17 322 0.0 0.0 0.00 0.00 0.00 78 1021.5
20260906144047 17 322 0.0 0.0 0.00 0.00 0.00 78 1021.5
20260906143530 17 322 0.0 0.0 0.00 0.00 0.00 80 1021.4
20260906143039 17 322 0.0 0.0 0.00 0.00 0.00 80 1021.3
20260906142534 17 41 0.0 0.0 0.00 0.00 0.00 81 1021.4
20260906142034 17 315 0.0 0.0 0.00 0.00 0.00 82 1021.3
20260906141535 16 322 0.0 0.0 0.00 0.00 0.00 83 1021.3
20260906141031 16 326 0.0 0.0 0.00 0.00 0.00 84 1021.4
20260906140531 16 328 0.0 0.0 0.00 0.00 0.00 85 1021.4
20260906140106 16 328 0.0 0.0 0.00 0.00 0.00 85 1021.4
20260906135547 15 328 0.0 0.0 0.00 0.00 0.00 86 1021.3
20260906135050 15 328 0.0 0.0 0.00 0.00 0.00 86 1021.3
20260906134551 15 328 0.0 0.0 0.00 0.00 0.00 86 1021.4
20260906134041 15 328 0.0 0.0 0.00 0.00 0.00 86 1021.5
20260906133543 15 328 0.0 0.0 0.00 0.00 0.00 86 1021.4
20260906133023 15 328 0.0 0.0 0.00 0.00 0.00 85 1021.4
20260906132526 15 328 0.0 0.0 0.00 0.00 0.00 85 1021.3
20260906132028 15 328 0.0 0.0 0.00 0.00 0.00 84 1021.3
20260906131526 15 328 0.0 0.0 0.00 0.00 0.00 83 1021.3
20260906131051 15 328 0.0 0.0 0.00 0.00 0.00 83 1021.4
20260906130551 15 328 0.0 0.0 0.00 0.00 0.00 83 1021.3
20260906130027 15 328 0.0 0.0 0.00 0.00 0.00 83 1021.2
20260906125526 14 328 0.0 0.0 0.00 0.00 0.00 83 1021.1
20260906125056 14 328 0.0 0.0 0.00 0.00 0.00 82 1021.1
20260906124608 14 328 0.0 0.0 0.00 0.00 0.00 82 1021.1
20260906124048 14 328 0.0 0.0 0.00 0.00 0.00 81 1021.0
20260906123545 14 328 0.0 0.0 0.00 0.00 0.00 81 1021.1
20260906123024 14 328 0.0 0.0 0.00 0.00 0.00 81 1021.1
20260906122525 14 328 0.0 0.0 0.00 0.00 0.00 81 1021.0
20260906122028 14 328 0.0 0.0 0.00 0.00 0.00 81 1021.0
20260906121526 13 328 0.0 0.0 0.00 0.00 0.00 80 1021.0
20260906121029 13 328 0.0 0.0 0.00 0.00 0.00 80 1020.9
20260906120533 13 328 0.0 0.0 0.00 0.00 0.00 79 1020.9
20260906120043 13 328 0.0 0.0 0.00 0.00 0.00 79 1020.9
20260906115523 13 328 0.0 0.0 0.00 0.00 0.00 79 1020.9
20260906115026 13 328 0.0 0.0 0.00 0.00 0.00 79 1020.9
20260906114537 13 328 0.0 0.0 0.00 0.00 0.00 79 1020.9
20260906114048 13 328 0.0 0.0 0.00 0.00 0.00 78 1021.0
20260906113551 13 328 0.0 0.0 0.00 0.00 0.00 77 1020.9
20260906113045 13 328 0.0 0.0 0.00 0.00 0.00 77 1021.0
20260906112546 14 328 0.0 0.0 0.00 0.00 0.00 77 1020.9
20260906112049 13 328 0.0 0.0 0.00 0.00 0.00 76 1020.9
20260906111545 14 328 0.0 0.0 0.00 0.00 0.00 76 1020.8
20260906111044 14 328 0.0 0.0 0.00 0.00 0.00 75 1020.8
20260906110525 14 328 0.0 0.0 0.00 0.00 0.00 75 1020.9
20260906110056 14 328 0.0 0.0 0.00 0.00 0.00 75 1020.8
20260906105537 14 328 0.0 0.0 0.00 0.00 0.00 75 1020.7
20260906105039 14 328 0.0 0.0 0.00 0.00 0.00 74 1020.8
20260906104542 15 328 0.0 0.0 0.00 0.00 0.00 74 1020.8
20260906104025 15 328 0.0 0.0 0.00 0.00 0.00 74 1020.8
20260906103527 15 328 0.0 0.0 0.00 0.00 0.00 75 1020.9
20260906103102 15 328 0.0 0.0 0.00 0.00 0.00 73 1020.8
20260906102541 15 328 0.0 0.0 0.00 0.00 0.00 72 1020.8
20260906102023 15 328 0.0 0.0 0.00 0.00 0.00 72 1020.8
20260906101524 15 328 0.0 0.0 0.00 0.00 0.00 72 1020.8
20260906101049 15 328 0.0 0.0 0.00 0.00 0.00 71 1020.8
20260906100531 16 328 0.0 0.0 0.00 0.00 0.00 71 1020.7
20260906100033 16 328 0.0 0.0 0.00 0.00 0.00 71 1020.8
20260906095536 16 328 0.0 0.0 0.00 0.00 0.00 70 1020.8
20260906095038 16 328 0.0 0.0 0.00 0.00 0.00 70 1020.9
20260906094539 16 328 0.0 0.0 0.00 0.00 0.00 70 1020.8
20260906094041 16 328 0.0 0.0 0.00 0.00 0.00 69 1020.9
20260906093542 16 328 0.0 0.0 0.00 0.00 0.00 68 1020.7
20260906093043 16 328 0.0 0.0 0.00 0.00 0.00 68 1020.6
20260906092545 16 328 0.0 0.0 0.00 0.00 0.00 67 1020.6
20260906092100 16 328 0.0 0.0 0.00 0.00 0.00 68 1020.5
20260906091540 16 328 0.0 0.0 0.00 0.00 0.00 67 1020.4
20260906091039 16 328 0.0 0.0 0.00 0.00 0.00 66 1020.2
20260906090541 17 328 0.0 0.0 0.00 0.00 0.00 66 1020.1
20260906090023 17 328 0.0 0.0 0.00 0.00 0.00 66 1020.0
20260906085525 17 328 0.0 0.0 0.00 0.00 0.00 65 1020.0
20260906085054 17 328 0.0 0.0 0.00 0.00 0.00 65 1020.1
20260906084548 17 328 0.0 0.0 0.00 0.00 0.00 64 1020.0
20260906084027 17 328 0.0 0.0 0.00 0.00 0.00 63 1020.1
20260906083601 18 328 0.0 0.0 0.00 0.00 0.00 62 1020.2
20260906083041 18 328 0.0 0.0 0.00 0.00 0.00 61 1020.1
20260906082522 18 328 0.0 0.0 0.00 0.00 0.00 61 1020.1
20260906082025 18 328 0.0 0.0 0.00 0.00 0.00 60 1020.1
20260906081524 18 328 0.0 1.6 0.00 0.00 0.00 60 1020.2
20260906081027 18 327 0.0 1.6 0.00 0.00 0.00 60 1020.2
20260906080529 18 313 0.0 0.0 0.00 0.00 0.00 59 1020.2
20260906080031 18 313 0.0 0.0 0.00 0.00 0.00 58 1020.1
20260906075533 18 312 0.0 0.0 0.00 0.00 0.00 57 1020.1
20260906075043 18 311 0.0 0.0 0.00 0.00 0.00 56 1020.1
20260906074546 18 305 0.0 0.0 0.00 0.00 0.00 56 1020.1
20260906074101 18 305 0.0 0.0 0.00 0.00 0.00 55 1020.1
20260906073522 18 305 0.0 0.0 0.00 0.00 0.00 55 1020.1
20260906073022 18 305 0.0 0.0 0.00 0.00 0.00 53 1020.1
20260906072525 18 305 0.0 0.0 0.00 0.00 0.00 52 1020.1
20260906072056 19 305 0.0 0.0 0.00 0.00 0.00 51 1020.2
20260906071533 19 305 0.0 0.0 0.00 0.00 0.00 51 1020.1
20260906071036 19 304 0.0 0.0 0.00 0.00 0.00 50 1020.3
20260906070537 20 304 0.0 0.0 0.00 0.00 0.00 49 1020.2
20260906070036 19 304 0.0 0.0 0.00 0.00 0.00 49 1020.1
20260906065534 19 305 0.0 0.0 0.00 0.00 0.00 51 1020.0
20260906065031 18 276 0.0 0.0 0.00 0.00 0.00 53 1020.0
20260906064604 18 272 0.0 0.0 0.00 0.00 0.00 54 1020.1
20260906064043 18 272 0.0 0.0 0.00 0.00 0.00 53 1020.0
20260906063544 18 272 0.0 0.0 0.00 0.00 0.00 53 1020.1
20260906063029 19 272 0.0 0.0 0.00 0.00 0.00 52 1020.1
20260906062529 19 272 0.0 0.0 0.00 0.00 0.00 51 1020.0
20260906062023 19 272 0.0 0.0 0.00 0.00 0.00 51 1020.1
20260906061524 19 272 0.0 0.0 0.00 0.00 0.00 51 1020.2
20260906061035 20 272 0.0 0.0 0.00 0.00 0.00 50 1020.2
20260906060537 20 270 0.0 0.0 0.00 0.00 0.00 50 1020.3
20260906060037 20 270 0.0 0.0 0.00 0.00 0.00 48 1020.4
20260906055540 20 270 0.0 0.0 0.00 0.00 0.00 48 1020.4
20260906055042 20 231 0.0 0.0 0.00 0.00 0.00 48 1020.4
20260906054545 20 231 0.0 0.0 0.00 0.00 0.00 48 1020.2
20260906054026 20 231 0.0 0.0 0.00 0.00 0.00 47 1020.3
20260906053539 20 231 0.0 0.0 0.00 0.00 0.00 47 1020.3
20260906053039 20 231 0.0 0.0 0.00 0.00 0.00 47 1020.3
20260906052542 21 231 0.0 0.0 0.00 0.00 0.00 46 1020.2
20260906052023 21 231 0.0 0.0 0.00 0.00 0.00 46 1020.1
20260906051526 21 231 0.0 0.0 0.00 0.00 0.00 46 1020.2
20260906051025 21 231 0.0 0.0 0.00 0.00 0.00 45 1020.2
20260906050528 21 231 0.0 0.0 0.00 0.00 0.00 46 1020.1
20260906050031 21 231 0.0 0.0 0.00 0.00 0.00 45 1020.1
20260906045607 21 231 0.0 0.0 0.00 0.00 0.00 44 1020.1
20260906045045 21 231 0.0 0.0 0.00 0.00 0.00 45 1020.2
20260906044546 21 230 0.0 0.0 0.00 0.00 0.00 44 1020.2
20260906044047 21 230 0.0 0.0 0.00 0.00 0.00 44 1020.0
20260906043550 21 235 0.0 0.0 0.00 0.00 0.00 45 1019.9
20260906043040 21 295 0.0 0.0 0.00 0.00 0.00 44 1019.7
20260906042523 21 295 0.0 0.0 0.00 0.00 0.00 43 1019.6
20260906042026 21 295 0.0 0.0 0.00 0.00 0.00 44 1019.5
20260906041524 21 293 0.0 0.0 0.00 0.00 0.00 45 1019.5
20260906041025 21 293 0.0 0.0 0.00 0.00 0.00 44 1019.3
20260906040524 21 293 0.0 0.0 0.00 0.00 0.00 43 1019.3
20260906040055 21 293 0.0 0.0 0.00 0.00 0.00 42 1019.1
20260906035533 22 313 0.0 0.0 0.00 0.00 0.00 42 1019.0
20260906035034 22 313 0.0 0.0 0.00 0.00 0.00 40 1018.9
20260906034610 22 313 0.0 0.0 0.00 0.00 0.00 40 1019.0
20260906034028 22 313 0.0 0.0 0.00 0.00 0.00 41 1019.1
20260906033529 23 313 0.0 0.0 0.00 0.00 0.00 38 1019.2
20260906033104 23 313 0.0 0.0 0.00 0.00 0.00 37 1019.2
20260906032545 23 319 0.0 0.0 0.00 0.00 0.00 36 1019.0
20260906032048 23 322 0.0 1.6 0.00 0.00 0.00 36 1018.9
20260906031547 23 320 0.0 1.6 0.00 0.00 0.00 36 1018.8
20260906031028 23 315 0.0 0.0 0.00 0.00 0.00 36 1018.8
20260906030605 23 313 0.0 0.0 0.00 0.00 0.00 36 1018.8
20260906030046 23 291 0.0 0.0 0.00 0.00 0.00 36 1018.7
20260906025549 23 286 0.0 1.6 0.00 0.00 0.00 36 1018.6
20260906025031 23 297 0.0 0.0 0.00 0.00 0.00 36 1018.5
20260906024534 23 297 0.0 0.0 0.00 0.00 0.00 37 1018.5
20260906024036 23 297 0.0 0.0 0.00 0.00 0.00 37 1018.5
20260906023535 23 297 0.0 0.0 0.00 0.00 0.00 38 1018.5
20260906023036 23 297 0.0 0.0 0.00 0.00 0.00 38 1018.6
20260906022536 23 297 0.0 0.0 0.00 0.00 0.00 36 1018.5
20260906022034 23 297 0.0 0.0 0.00 0.00 0.00 36 1018.5
20260906021536 23 297 0.0 0.0 0.00 0.00 0.00 36 1018.4
20260906021034 23 297 0.0 0.0 0.00 0.00 0.00 36 1018.4
20260906020537 23 297 0.0 0.0 0.00 0.00 0.00 36 1018.3
20260906020046 23 297 0.0 0.0 0.00 0.00 0.00 37 1018.3
20260906015548 23 297 0.0 0.0 0.00 0.00 0.00 37 1018.2
20260906015031 23 297 0.0 0.0 0.00 0.00 0.00 36 1018.1
20260906014533 24 297 0.0 0.0 0.00 0.00 0.00 36 1018.1
20260906014035 24 297 0.0 0.0 0.00 0.00 0.00 35 1018.0
20260906013537 25 297 0.0 0.0 0.00 0.00 0.00 34 1018.0
20260906013040 25 297 0.0 0.0 0.00 0.00 0.00 34 1018.0
20260906012543 25 297 0.0 0.0 0.00 0.00 0.00 33 1018.1
20260906012046 26 299 0.0 0.0 0.00 0.00 0.00 31 1018.0
20260906011527 26 301 0.0 0.0 0.00 0.00 0.00 30 1018.0
20260906011030 26 295 0.0 0.0 0.00 0.00 0.00 29 1018.0
20260906010528 27 280 0.0 0.0 0.00 0.00 0.00 28 1017.9
20260906010028 27 270 0.0 1.6 0.00 0.00 0.00 28 1018.0
20260906005528 27 270 0.0 1.6 0.00 0.00 0.00 28 1018.0
20260906005026 27 282 0.0 1.6 0.00 0.00 0.00 27 1018.1
20260906004526 28 257 0.0 12.9 0.00 0.00 0.00 27 1018.1
20260906004039 28 276 0.0 12.9 0.00 0.00 0.00 26 1018.2
20260906003538 28 304 0.0 0.0 0.00 0.00 0.00 26 1018.2
20260906003111 28 276 0.0 0.0 0.00 0.00 0.00 26 1018.2
20260906002546 28 275 0.0 1.6 0.00 0.00 0.00 25 1018.1
20260906002040 28 275 0.0 1.6 0.00 0.00 0.00 25 1018.1
20260906001522 28 278 0.0 3.2 0.00 0.00 0.00 25 1018.0
20260906001044 28 278 0.0 3.2 0.00 0.00 0.00 24 1018.1
20260906000545 28 268 0.0 0.0 0.00 0.00 0.00 25 1018.0
20260906000025 29 268 0.0 3.2 0.00 0.00 0.00 25 1018.1
20260905235525 29 268 0.0 3.2 0.00 0.00 0.00 24 1018.0
20260905235029 30 259 0.0 0.0 0.00 0.00 0.00 24 1017.9
20260905234601 30 271 0.0 0.0 0.00 0.00 0.00 24 1017.9
20260905234035 30 290 0.0 0.0 0.00 0.00 0.00 24 1017.9
20260905233537 30 291 0.0 0.0 0.00 0.00 0.00 26 1017.9
20260905233038 30 291 0.0 0.0 0.00 0.00 0.00 22 1017.9
20260905232539 30 291 0.0 0.0 0.00 0.00 0.00 26 1017.9
20260905232040 30 291 0.0 0.0 0.00 0.00 0.00 24 1017.8
20260905231523 31 291 0.0 0.0 0.00 0.00 0.00 21 1017.8
20260905231022 31 291 0.0 0.0 0.00 0.00 0.00 21 1017.7
20260905230551 32 289 0.0 0.0 0.00 0.00 0.00 21 1017.7
20260905230031 31 289 0.0 0.0 0.00 0.00 0.00 22 1017.6
20260905225528 32 287 0.0 0.0 0.00 0.00 0.00 20 1017.5
20260905225029 32 281 0.0 0.0 0.00 0.00 0.00 21 1017.5
20260905224531 32 284 0.0 0.0 0.00 0.00 0.00 19 1017.5
20260905224033 33 287 0.0 0.0 0.00 0.00 0.00 19 1017.5
20260905223534 33 308 0.0 0.0 0.00 0.00 0.00 19 1017.6
20260905223036 32 298 0.0 0.0 0.00 0.00 0.00 20 1017.6
20260905222538 32 293 0.0 0.0 0.00 0.00 0.00 20 1017.6
20260905222040 32 295 0.0 0.0 0.00 0.00 0.00 22 1017.6
20260905221523 32 294 0.0 0.0 0.00 0.00 0.00 21 1017.6
20260905221027 32 294 0.0 0.0 0.00 0.00 0.00 20 1017.6